Location: Eastlake (historical)
(39.0077°N, 122.6678°W)
Time: 09:35:53
(UTC+00:00)

ALOS - Pass Details

Date: 20 April 2021
Orbit: 682 x 685 km, 97.9° (Epoch: 08 May)

Event Time Altitude Azimuth Distance (km) Brightness Sun altitude
Rises 12:09:33 0° 16° (NNE) 3,053 6.3 -14.6°
Reaches altitude 10° 12:11:50 10° 20° (NNE) 2,133 5.5 -14.3°
Maximum altitude 12:16:27 61° 100° (E) 775 2.8 -13.5°
Drops below altitude 10° 12:21:02 10° 181° (S) 2,117 4.5 -12.7°
Sets 12:23:17 0° 185° (S) 3,028 5.3 -12.3°
